This is the latest recevied weather packets stored in our database for station/object NK2J. If no packets are shown the sender has not sent any weather packets the latest 10 day(s).
| Time | Temp. | Humidity | Pressure | Rain* | Wind** | Luminosity | Snow |
|---|---|---|---|---|---|---|---|
| 1777904829 | 22.22° C | 44% | 1014.2 hPa | 0 mm | - | 83 W/m² | - |
| 1777904526 | 22.22° C | 43% | 1013.9 hPa | 0 mm | - | 72 W/m² | - |
| 1777904222 | 22.78° C | 43% | 1014 hPa | 0 mm | - | 69 W/m² | - |
| 1777903919 | 22.78° C | 43% | 1014 hPa | 0 mm | - | 66 W/m² | - |
| 1777903616 | 22.78° C | 43% | 1014 hPa | 0 mm | - | 63 W/m² | - |
| 1777903312 | 22.22° C | 43% | 1014.1 hPa | 0 mm | - | 56 W/m² | - |
| 1777903009 | 22.22° C | 43% | 1013.8 hPa | 0 mm | - | 46 W/m² | - |
| 1777902705 | 22.22° C | 43% | 1014.1 hPa | 0 mm | - | 38 W/m² | - |
| 1777902403 | 22.22° C | 43% | 1014.3 hPa | 0 mm | - | 34 W/m² | - |
| 1777902099 | 22.22° C | 43% | 1014.3 hPa | 0 mm | - | 31 W/m² | - |
| 1777901798 | 22.22° C | 44% | 1014 hPa | 0 mm | - | 30 W/m² | - |
| 1777901495 | 22.22° C | 43% | 1014 hPa | 0 mm | - | 30 W/m² | - |
| 1777901192 | 22.22° C | 42% | 1013.7 hPa | 0 mm | - | 32 W/m² | - |
| 1777900890 | 22.78° C | 42% | 1013.7 hPa | 0 mm | - | 33 W/m² | - |
| 1777900587 | 22.22° C | 42% | 1013.7 hPa | 0 mm | - | 30 W/m² | - |
| 1777900284 | 22.22° C | 42% | 1013.4 hPa | 0 mm | - | 25 W/m² | - |
| 1777899980 | 21.67° C | 43% | 1013.4 hPa | 0 mm | - | 19 W/m² | - |
| 1777899677 | 21.67° C | 43% | 1013.3 hPa | 0 mm | - | 15 W/m² | - |
| 1777899375 | 21.67° C | 43% | 1013.4 hPa | 0 mm | - | 11 W/m² | - |
| 1777899072 | 21.67° C | 43% | 1013.3 hPa | 0 mm | - | 8 W/m² | - |
| 1777898769 | 21.67° C | 43% | 1013.2 hPa | 0 mm | - | 6 W/m² | - |
| 1777898467 | 22.22° C | 43% | 1013.3 hPa | 0 mm | - | 3 W/m² | - |
| 1777898164 | 22.22° C | 42% | 1013.2 hPa | 0 mm | - | 1 W/m² | - |
| 1777897861 | 22.22° C | 41% | 1013.2 hPa | 0 mm | - | 1 W/m² | - |
| 1777897557 | 21.67° C | 42% | 1013.2 hPa | 0 mm | - | 0 W/m² | - |
* Rain latest hour (hover to see other rain measurements)
** Current wind speed in m/s (hover to see current wind gust speed)